EW9532 Weather Reports


time (UTC)temp
F
wind
direction
speed
knots
gust
knots
rain 1hr
in
rain 24hr
in
rain mn
in
humidity
%
barometer
mb
20260502232529 75 231 0.0 0.9 0.00 0.00 0.00 55 1020.1
20260502232030 76 283 0.0 0.9 0.00 0.00 0.00 55 1020.1
20260502231549 76 0 0.0 0.0 0.00 0.00 0.00 55 1020.3
20260502231529 76 79 0.0 0.9 0.00 0.00 0.00 55 1020.1
20260502231029 76 141 0.0 1.7 0.00 0.00 0.00 57 1020.1
20260502230529 76 141 0.0 1.7 0.00 0.00 0.00 57 1020.1
20260502230053 75 0 0.0 1.7 0.00 0.00 0.00 55 1020.3
20260502230028 76 20 0.0 0.9 0.00 0.00 0.00 56 1020.1
20260502225526 76 9 0.0 0.9 0.00 0.00 0.00 56 1020.2
20260502225241 76 46 0.0 0.9 0.00 0.00 0.00 57 1020.2
20260502224549 75 0 0.0 0.9 0.00 0.00 0.00 57 1020.5
20260502224515 76 63 0.0 0.9 0.00 0.00 0.00 56 1020.2
20260502224015 76 200 0.0 1.7 0.00 0.00 0.00 56 1020.1
20260502223506 76 222 0.0 4.3 0.00 0.00 0.00 57 1020.2
20260502223059 75 0 0.0 5.2 0.00 0.00 0.00 56 1020.3
20260502223006 76 272 0.0 4.3 0.00 0.00 0.00 57 1020.2
20260502222503 76 13 0.9 4.3 0.00 0.00 0.00 56 1020.0
20260502222006 76 96 0.0 0.0 0.00 0.00 0.00 57 1020.0
20260502221548 75 0 0.0 5.2 0.00 0.00 0.00 57 1020.3
20260502221516 76 210 0.0 5.2 0.00 0.00 0.00 57 1020.0
20260502221002 75 23 0.9 5.2 0.00 0.00 0.00 57 1020.0
20260502220728 76 219 0.0 3.5 0.00 0.00 0.00 58 1020.1
20260502220002 76 15 0.0 3.5 0.00 0.00 0.00 57 1020.2
20260502215502 76 94 0.0 2.6 0.00 0.00 0.00 58 1020.0
20260502215003 76 348 0.0 0.9 0.00 0.00 0.00 57 1020.0
20260502214609 76 0 0.0 3.5 0.00 0.00 0.00 58 1020.2
20260502214503 76 122 0.0 3.5 0.00 0.00 0.00 58 1020.1
20260502214002 76 97 0.0 3.5 0.00 0.00 0.00 58 1019.9
20260502213502 77 264 0.0 2.6 0.00 0.00 0.00 56 1020.0
20260502213219 77 74 0.0 3.5 0.00 0.00 0.00 57 1020.0
20260502213109 77 0 0.0 3.5 0.00 0.00 0.00 57 1020.2
20260502212502 77 4 0.0 4.3 0.00 0.00 0.00 57 1020.1
20260502212002 78 284 0.9 4.3 0.00 0.00 0.00 56 1020.2
20260502211557 78 0 0.0 3.5 0.00 0.00 0.00 57 1020.4
20260502211502 78 266 0.0 1.7 0.00 0.00 0.00 58 1020.1
20260502211002 77 66 0.0 0.9 0.00 0.00 0.00 60 1020.2
20260502210723 76 254 0.0 0.9 0.00 0.00 0.00 61 1020.4
20260502210050 75 0 0.0 1.7 0.00 0.00 0.00 60 1020.8
20260502210002 76 246 0.0 0.9 0.00 0.00 0.00 60 1020.5
20260502205502 77 131 0.0 0.9 0.00 0.00 0.00 60 1020.5
20260502205003 77 1 0.0 1.7 0.00 0.00 0.00 61 1020.5
20260502204547 76 0 0.0 1.7 0.00 0.00 0.00 61 1020.9
20260502204503 76 188 0.0 1.7 0.00 0.00 0.00 63 1020.6
20260502204003 76 11 0.0 0.9 0.00 0.00 0.00 61 1020.8
20260502203502 75 262 0.0 0.9 0.00 0.00 0.00 63 1020.8
20260502203109 74 0 0.0 0.9 0.00 0.00 0.00 62 1021.1
20260502203000 75 262 0.0 0.9 0.00 0.00 0.00 63 1021.1
20260502202725 74 253 0.0 0.9 0.00 0.00 0.00 63 1021.0
20260502202002 74 253 0.0 0.9 0.00 0.00 0.00 64 1021.0
20260502201547 74 0 0.0 0.0 0.00 0.00 0.00 62 1021.3
20260502201501 74 314 0.0 0.0 0.00 0.00 0.00 63 1021.0
20260502201001 74 177 0.0 1.7 0.00 0.00 0.00 63 1021.2
20260502200721 74 326 0.0 1.7 0.00 0.00 0.00 64 1021.3
20260502200057 73 0 0.0 0.9 0.00 0.00 0.00 65 1021.5
20260502200001 74 253 0.0 0.9 0.00 0.00 0.00 65 1021.3
20260502195500 74 193 0.0 0.9 0.00 0.00 0.00 64 1021.3
20260502195003 73 266 0.0 0.9 0.00 0.00 0.00 65 1021.3
20260502194553 72 0 0.0 0.9 0.00 0.00 0.00 65 1021.6
20260502194515 73 120 0.0 0.9 0.00 0.00 0.00 66 1021.3
20260502194003 72 130 0.0 2.6 0.00 0.00 0.00 65 1021.4
20260502193502 72 359 0.0 5.2 0.00 0.00 0.00 66 1021.5
20260502193050 72 0 0.0 5.2 0.00 0.00 0.00 64 1021.7
20260502193000 72 217 0.0 5.2 0.00 0.00 0.00 65 1021.4
20260502192500 72 198 0.0 0.9 0.00 0.00 0.00 66 1021.6
20260502192001 72 198 0.0 5.2 0.00 0.00 0.00 65 1021.7
20260502191555 72 0 0.0 5.2 0.00 0.00 0.00 66 1021.9
20260502191502 72 357 0.0 5.2 0.00 0.00 0.00 66 1021.7
20260502191000 72 198 0.0 3.5 0.00 0.00 0.00 66 1021.9
20260502190501 72 258 0.0 3.5 0.00 0.00 0.00 65 1021.8
20260502190046 71 0 0.0 0.9 0.00 0.00 0.00 67 1022.0
20260502190001 72 290 0.0 0.9 0.00 0.00 0.00 67 1021.8
20260502185500 71 290 0.0 1.7 0.00 0.00 0.00 67 1021.8
20260502185002 71 283 0.0 3.5 0.00 0.00 0.00 67 1021.8
20260502184544 71 0 0.0 3.5 0.00 0.01 0.00 66 1022.1
20260502184501 71 66 0.9 3.5 0.00 0.00 0.00 67 1021.9
20260502184001 71 253 0.0 4.3 0.00 0.00 0.00 67 1021.8
20260502183500 71 171 0.0 4.3 0.00 0.00 0.00 68 1021.9
20260502183223 70 31 0.0 1.7 0.00 0.00 0.00 68 1021.9
20260502183049 70 0 0.0 1.7 0.00 0.01 0.00 68 1022.2
20260502182501 70 31 0.0 1.7 0.00 0.00 0.00 68 1022.0
20260502182002 70 96 0.0 2.6 0.00 0.00 0.00 69 1022.0
20260502181731 69 119 0.0 4.3 0.00 0.00 0.00 69 1022.1
20260502181546 69 0 0.0 3.5 0.00 0.01 0.00 69 1022.2
20260502181002 70 23 0.0 4.3 0.00 0.00 0.00 68 1021.8
20260502180503 70 231 0.0 2.6 0.00 0.01 0.00 68 1022.1
20260502180222 70 122 0.0 4.3 0.00 0.01 0.00 69 1022.1
20260502170430 66 178 0.0 3.5 0.00 0.01 0.00 73 1022.5
20260502163903 65 248 0.0 2.6 0.00 0.01 0.00 75 1022.6
20260502163402 65 248 0.0 3.5 0.00 0.01 0.00 76 1022.8
20260502163105 64 0 0.0 4.3 0.00 0.01 0.00 76 1022.9
20260502162902 64 61 0.9 3.5 0.00 0.01 0.00 75 1022.7
20260502162402 64 57 0.0 2.6 0.00 0.01 0.00 75 1022.6
20260502162124 64 288 0.0 1.7 0.00 0.01 0.00 77 1022.4
20260502161849 63 160 0.0 2.6 0.00 0.01 0.00 77 1022.4
20260502161613 63 0 0.0 2.6 0.00 0.01 0.00 77 1022.8
20260502160902 63 53 0.0 2.6 0.00 0.01 0.00 76 1022.5
20260502160853 64 298 0.0 1.7 0.00 0.01 0.00 76 1022.6
20260502151901 62 58 0.0 1.7 0.00 0.01 0.00 78 1022.2
20260502151621 62 184 0.0 2.6 0.00 0.01 0.00 78 1022.2
20260502151557 61 0 0.0 1.7 0.00 0.01 0.00 77 1022.5
20260502150900 62 325 0.0 2.6 0.00 0.01 0.00 77 1022.3
20260502150401 62 119 0.0 1.7 0.00 0.01 0.00 77 1022.2
20260502130620 61 83 0.0 0.0 0.00 0.01 0.00 85 1020.3
20260502123401 61 264 0.0 0.0 0.00 0.01 0.00 85 1019.9
20260502123112 61 0 0.0 0.0 0.00 0.01 0.00 85 1020.2
20260502122901 62 189 0.0 0.0 0.00 0.01 0.00 85 1019.8
20260502122400 62 189 0.0 0.0 0.00 0.01 0.00 84 1019.7
20260502121901 62 189 0.0 0.0 0.00 0.01 0.00 84 1019.6
20260502121625 62 189 0.0 0.0 0.00 0.01 0.00 83 1019.6
20260502121556 61 0 0.0 0.0 0.00 0.01 0.00 82 1019.9
20260502120902 62 189 0.0 0.0 0.00 0.01 0.00 83 1019.4
20260502120401 62 189 0.0 0.0 0.00 0.01 0.00 83 1019.4
20260502115901 62 189 0.0 0.0 0.00 0.01 0.00 83 1019.4
20260502115616 62 189 0.0 0.0 0.00 0.01 0.00 83 1019.2
20260502114902 62 189 0.0 0.0 0.00 0.01 0.00 83 1019.3
20260502114613 62 189 0.0 0.0 0.00 0.01 0.00 83 1019.1
20260502114554 61 0 0.0 0.0 0.00 0.01 0.00 82 1019.4
20260502113855 62 189 0.0 0.0 0.00 0.01 0.00 83 1018.9
20260502113348 62 189 0.0 3.5 0.00 0.01 0.00 83 1018.9
20260502113052 61 0 0.0 3.5 0.00 0.01 0.00 82 1018.9
20260502112841 62 189 0.0 3.5 0.00 0.01 0.00 82 1018.6
20260502112340 62 357 0.0 0.0 0.00 0.01 0.00 82 1018.5
20260502111840 62 357 0.0 0.0 0.00 0.01 0.00 82 1018.6
20260502111551 61 0 0.0 0.0 0.00 0.01 0.00 82 1018.7
20260502111331 62 357 0.0 0.9 0.00 0.01 0.00 82 1018.5
20260502110830 62 29 0.0 2.6 0.00 0.01 0.00 82 1018.4
20260502110330 62 178 0.0 2.6 0.00 0.01 0.00 82 1018.3
20260502110051 62 0 0.0 3.5 0.00 0.01 0.00 82 1018.5
20260502105831 62 87 0.0 3.5 0.00 0.01 0.00 82 1018.1
20260502105330 62 303 0.0 3.5 0.00 0.01 0.00 82 1018.2
20260502104830 62 31 0.0 3.5 0.00 0.01 0.00 82 1018.2
20260502104550 62 0 0.0 2.6 0.00 0.01 0.00 82 1018.3
20260502104330 62 207 0.0 0.0 0.00 0.01 0.00 82 1018.0
20260502104100 62 207 0.0 0.0 0.00 0.01 0.00 82 1018.1
20260502103556 62 207 0.0 0.9 0.00 0.01 0.00 82 1018.1
20260502103048 62 0 0.0 0.9 0.00 0.01 0.00 81 1018.3
20260502102831 62 207 0.0 0.9 0.00 0.01 0.00 82 1018.0
20260502102556 62 202 0.0 0.9 0.00 0.01 0.00 82 1018.1
20260502101831 62 202 0.0 0.9 0.00 0.01 0.00 82 1018.0
20260502101556 62 0 0.0 0.9 0.00 0.01 0.00 82 1018.1
20260502101329 62 187 0.0 1.7 0.00 0.01 0.00 82 1017.8
20260502100830 62 256 0.0 1.7 0.00 0.01 0.00 82 1017.8
20260502100329 62 30 0.0 0.9 0.00 0.01 0.00 82 1017.7
20260502100110 62 117 0.0 1.7 0.00 0.01 0.00 82 1017.6
20260502091329 63 350 0.0 0.9 0.00 0.01 0.00 83 1017.4
20260502090831 63 150 0.0 3.5 0.00 0.01 0.00 83 1017.4
20260502090330 63 244 0.0 3.5 0.00 0.01 0.00 83 1017.3
20260502080108 63 321 0.0 2.6 0.00 0.01 0.00 82 1017.5
20260502070831 64 219 0.9 7.0 0.00 0.01 0.00 82 1016.2
20260502070330 65 304 1.7 7.0 0.00 0.01 0.00 82 1016.1
20260502070107 64 233 0.9 6.1 0.00 0.01 0.00 82 1016.4
20260502065831 65 80 0.9 6.1 0.00 0.01 0.00 82 1016.1
20260502065330 65 259 0.0 6.1 0.00 0.01 0.00 82 1016.2
20260502064830 65 216 0.0 5.2 0.00 0.01 0.00 82 1016.1
20260502064551 64 0 0.9 7.0 0.00 0.01 0.00 81 1016.4
20260502064328 65 117 0.9 5.2 0.00 0.01 0.00 82 1016.2
20260502063829 65 234 0.0 4.3 0.00 0.01 0.00 82 1016.1
20260502063330 65 226 0.0 5.2 0.00 0.01 0.00 82 1016.3
20260502063045 65 0 0.9 6.1 0.00 0.01 0.00 81 1016.5
20260502062829 65 217 0.9 5.2 0.00 0.01 0.00 82 1016.2
20260502062329 65 44 0.9 4.3 0.00 0.01 0.00 82 1016.2
20260502061829 65 182 0.0 3.5 0.00 0.01 0.00 82 1016.1
20260502061550 65 0 0.0 5.2 0.00 0.01 0.00 81 1016.4
20260502061320 66 332 0.0 4.3 0.00 0.01 0.00 82 1016.2
20260502061036 66 26 0.0 8.7 0.00 0.01 0.00 82 1016.4
20260502060314 66 110 0.9 8.7 0.00 0.01 0.00 82 1016.2
20260502060052 66 0 0.0 5.2 0.00 0.01 0.00 81 1016.4
20260502055810 66 46 0.9 5.2 0.00 0.01 0.00 82 1016.0
20260502055306 66 168 0.0 2.6 0.00 0.01 0.00 82 1016.2
20260502054804 66 343 0.0 3.5 0.00 0.01 0.00 81 1016.2
20260502054551 66 0 0.0 7.0 0.00 0.01 0.00 81 1016.3
20260502054303 66 42 0.9 4.3 0.00 0.01 0.00 81 1016.0
20260502053803 66 249 0.0 5.2 0.00 0.01 0.00 81 1015.9
20260502053315 66 208 1.7 5.2 0.00 0.01 0.00 81 1015.8
20260502053056 66 350 0.9 6.1 0.00 0.01 0.00 81 1016.2
20260502052802 67 330 0.9 5.2 0.00 0.01 0.00 81 1016.0
20260502052530 67 259 0.9 5.2 0.00 0.01 0.00 81 1015.8
20260502051803 67 82 0.9 7.8 0.00 0.01 0.00 81 1015.8
20260502051600 67 8 0.0 7.0 0.00 0.01 0.00 81 1016.1
20260502051302 67 105 0.9 7.8 0.00 0.01 0.00 82 1016.0
20260502050801 67 172 0.0 3.5 0.00 0.01 0.00 82 1015.9
20260502050303 67 293 0.0 3.5 0.00 0.01 0.00 81 1015.8
20260502050046 67 172 0.0 6.1 0.00 0.01 0.00 81 1016.1
20260502045803 68 1 0.0 3.5 0.00 0.01 0.01 81 1015.9
20260502045305 68 281 0.0 4.3 0.00 0.01 0.01 81 1015.9
20260502044802 68 264 0.9 6.1 0.00 0.01 0.01 81 1015.8
20260502044552 67 0 0.0 6.1 0.00 0.01 0.01 81 1016.0
20260502044301 68 107 0.9 6.1 0.00 0.01 0.01 81 1015.6
20260502043800 68 205 0.0 5.2 0.00 0.01 0.01 81 1015.6
20260502043302 68 30 0.9 7.0 0.00 0.01 0.01 81 1015.6
20260502043048 67 346 0.0 7.0 0.00 0.01 0.01 81 1015.6
20260502042801 68 35 0.9 7.0 0.00 0.01 0.01 81 1015.4
20260502042300 68 47 0.0 4.3 0.00 0.01 0.01 82 1015.4
20260502041801 68 105 0.0 4.3 0.00 0.01 0.01 82 1015.3
20260502041549 68 0 0.0 4.3 0.00 0.01 0.01 82 1015.5
20260502041300 68 286 0.0 2.6 0.00 0.01 0.01 82 1015.2
20260502040800 68 301 0.0 3.5 0.00 0.01 0.01 82 1015.4
20260502040303 68 121 0.9 4.3 0.00 0.01 0.01 82 1015.2
20260502040049 68 0 0.0 6.1 0.00 0.01 0.01 82 1015.3
20260502035803 68 216 0.9 7.0 0.00 0.01 0.01 82 1014.9
20260502035523 68 262 0.9 7.0 0.00 0.01 0.01 82 1015.0
20260502034802 68 204 0.9 4.3 0.00 0.01 0.01 82 1014.9
20260502034550 68 125 0.0 5.2 0.00 0.01 0.01 81 1015.0
20260502034519 68 69 0.0 5.2 0.00 0.01 0.01 82 1014.8
20260502034018 69 161 0.9 5.2 0.00 0.01 0.01 82 1014.7
20260502033747 69 224 0.0 5.2 0.00 0.01 0.01 81 1014.9
20260502033050 68 0 0.0 6.1 0.00 0.01 0.01 81 1015.0
20260502032801 69 114 0.0 6.1 0.00 0.01 0.01 82 1014.9
20260502032305 69 305 0.0 6.1 0.00 0.01 0.01 82 1014.7
20260502031801 69 66 0.0 6.1 0.00 0.01 0.01 81 1014.7
20260502031549 69 0 0.9 6.1 0.00 0.01 0.01 81 1014.6
20260502031301 69 79 0.9 6.1 0.00 0.01 0.01 82 1014.5
20260502030800 69 229 0.0 7.0 0.00 0.01 0.01 82 1014.2
20260502030303 69 236 0.9 7.0 0.00 0.01 0.01 82 1014.1
20260502030050 69 274 0.9 7.0 0.00 0.01 0.01 81 1014.4
20260502025802 70 170 0.9 4.3 0.00 0.01 0.01 82 1014.0
20260502025306 70 195 0.0 3.5 0.00 0.01 0.01 82 1013.9
20260502024802 70 209 0.0 3.5 0.00 0.01 0.01 82 1013.7
20260502024544 70 197 0.0 3.5 0.00 0.01 0.01 82 1013.9
20260502024302 70 318 0.0 3.5 0.00 0.01 0.01 82 1013.6
20260502023802 70 25 0.0 1.7 0.00 0.01 0.01 81 1013.3
20260502023303 70 25 0.0 1.7 0.00 0.01 0.01 81 1013.3
20260502023053 69 0 0.0 1.7 0.00 0.01 0.01 81 1013.5
20260502023028 70 7 0.0 1.7 0.00 0.01 0.01 81 1013.2
20260502022306 70 27 0.0 3.5 0.00 0.01 0.01 81 1013.1
20260502021802 70 150 0.0 3.5 0.00 0.01 0.01 81 1012.8
20260502021552 69 150 0.0 4.3 0.00 0.01 0.01 81 1012.9
20260502021303 70 286 0.0 3.5 0.00 0.01 0.01 81 1012.5
20260502020801 70 296 0.9 3.5 0.00 0.01 0.01 81 1012.6
20260502020301 70 120 0.9 3.5 0.00 0.01 0.01 82 1012.5
20260502020053 70 186 0.0 5.2 0.00 0.01 0.01 81 1012.6
20260502015801 70 152 0.9 5.2 0.00 0.01 0.01 82 1012.4
20260502015305 70 295 0.9 5.2 0.00 0.01 0.01 82 1012.2
20260502014801 70 342 0.0 5.2 0.00 0.01 0.01 82 1012.2
20260502014553 70 0 0.0 7.0 0.00 0.01 0.01 82 1012.4
20260502014301 70 287 0.0 2.6 0.00 0.01 0.01 83 1012.1
20260502013801 70 359 0.0 4.3 0.00 0.01 0.01 83 1012.0
20260502013303 70 196 0.0 4.3 0.00 0.01 0.01 83 1011.9
20260502013049 70 314 0.0 7.0 0.00 0.01 0.01 83 1012.1
20260502012803 70 13 0.0 6.1 0.00 0.01 0.01 83 1012.0
20260502012315 70 276 0.9 6.1 0.00 0.01 0.01 83 1011.7
20260502011803 70 203 0.0 3.5 0.00 0.01 0.01 83 1011.6
20260502011550 70 0 0.0 4.3 0.00 0.01 0.01 83 1011.9
20260502011521 70 167 0.0 5.2 0.00 0.01 0.01 84 1011.4
20260502010802 70 148 0.9 7.0 0.00 0.01 0.01 84 1011.2
20260502010302 70 108 0.9 7.0 0.00 0.01 0.01 85 1011.0
20260502010048 70 33 0.9 6.1 0.00 0.01 0.01 85 1011.3
20260502005802 70 211 0.9 5.2 0.00 0.01 0.01 85 1011.1
20260502005513 70 228 0.0 7.8 0.00 0.01 0.01 86 1010.9
20260502005501 70 291 0.0 5.2 0.00 0.01 0.01 86 1011.0
20260502004552 70 27 0.0 7.0 0.00 0.01 0.01 86 1011.2
20260502004302 71 210 0.0 7.8 0.00 0.01 0.01 86 1010.9
20260502003802 71 85 0.0 7.8 0.00 0.01 0.01 85 1010.8
20260502003303 71 18 0.9 7.8 0.00 0.01 0.01 85 1010.8
20260502003049 70 172 0.9 7.8 0.00 0.01 0.01 84 1011.1
20260502002803 71 166 1.7 7.0 0.00 0.01 0.01 84 1010.6
20260502002305 71 15 0.0 7.0 0.00 0.01 0.01 84 1010.5
20260502001801 71 63 0.9 5.2 0.00 0.01 0.01 83 1010.3
20260502001548 71 221 0.9 7.8 0.00 0.01 0.01 83 1010.6
20260502001518 71 1 0.9 6.1 0.00 0.01 0.01 83 1010.3
20260502000801 71 184 1.7 6.1 0.00 0.01 0.01 82 1010.2
20260502000303 72 273 1.7 6.1 0.00 0.01 0.01 82 1010.1
20260502000057 72 158 0.9 7.0 0.00 0.01 0.01 82 1010.4
20260501235803 72 86 0.9 5.2 0.00 0.01 0.01 82 1009.9
20260501235305 73 185 0.0 8.7 0.00 0.01 0.01 82 1009.8
20260501234802 73 80 0.9 8.7 0.00 0.01 0.01 82 1009.8
20260501234547 73 326 1.7 8.7 0.00 0.01 0.01 81 1010.0
20260501234302 73 258 0.9 6.1 0.00 0.01 0.01 81 1009.6
20260501233802 74 134 0.0 10.4 0.00 0.01 0.01 81 1009.5
20260501233301 74 255 3.5 10.4 0.00 0.01 0.01 80 1009.2
20260501233046 74 342 0.9 9.6 0.00 0.01 0.01 80 1009.7
20260501233023 74 267 1.7 7.0 0.00 0.01 0.01 81 1009.2